When you browse on this site, cookies collect data to enhance your experience and personalize the content and advertising you see.
Visit our Privacy Policy to learn more. By continuing to use the site, you agree to this use of cookies and data.
  • In France
  • List of Countries
  • For 7 days
  • Water Temperature
  • Satellite Maps
  • Weather Map
  • Weather Widgets
  • user-avatar
    Login

    Hourly Weather Stepanakert

    Today, 26 June, Wednesday

    Time Temperature Precipitation Wind Pressure Humidity
    00:00 +24°C° 0 mm 2 mps 693 mmHg 47%
    01:00 +24°C° 0 mm 2 mps 693 mmHg 46%
    02:00 +24°C° 0 mm 2 mps 693 mmHg 45%
    03:00 +24°C° 0 mm 2 mps 693 mmHg 46%
    04:00 +24°C° 0 mm 1 mps 693 mmHg 47%
    05:00 +25°C° 0 mm 1 mps 693 mmHg 49%
    06:00 +25°C° 0 mm 1 mps 694 mmHg 50%
    07:00 +27°C° 0 mm 1 mps 694 mmHg 44%
    08:00 +29°C° 0 mm 2 mps 694 mmHg 37%
    09:00 +30°C° 0 mm 2 mps 695 mmHg 31%
    10:00 +31°C° 0 mm 2 mps 695 mmHg 31%
    11:00 +32°C° 0 mm 2 mps 695 mmHg 30%
    12:00 +33°C° 0 mm 3 mps 695 mmHg 30%
    13:00 +34°C° 0 mm 3 mps 694 mmHg 31%
    14:00 +34°C° 0 mm 3 mps 694 mmHg 31%
    15:00 +34°C° 0 mm 4 mps 693 mmHg 32%
    16:00 +33°C° 0 mm 3 mps 693 mmHg 36%
    17:00 +33°C° 0 mm 3 mps 693 mmHg 39%
    18:00 +31°C° 0 mm 3 mps 693 mmHg 42%
    19:00 +29°C° 0 mm 2 mps 693 mmHg 46%
    20:00 +27°C° 0 mm 2 mps 693 mmHg 50%
    21:00 +24°C° 0 mm 2 mps 693 mmHg 53%
    22:00 +24°C° 0 mm 2 mps 693 mmHg 53%
    23:00 +24°C° 0 mm 2 mps 692 mmHg 53%

    Tomorrow, 27 June, Thursday

    Time Temperature Precipitation Wind Pressure Humidity
    00:00 +23°C° 0 mm 1 mps 692 mmHg 53%
    01:00 +23°C° 0 mm 1 mps 692 mmHg 55%
    02:00 +21°C° 0 mm 2 mps 692 mmHg 56%
    03:00 +21°C° 0 mm 2 mps 692 mmHg 58%
    04:00 +22°C° 0 mm 1 mps 692 mmHg 59%
    05:00 +23°C° 0 mm 1 mps 692 mmHg 60%
    06:00 +23°C° 0 mm 1 mps 692 mmHg 62%
    07:00 +25°C° 0 mm 2 mps 692 mmHg 58%
    08:00 +26°C° 0 mm 2 mps 692 mmHg 54%
    09:00 +27°C° 0 mm 3 mps 692 mmHg 50%
    10:00 +28°C° 0 mm 3 mps 692 mmHg 48%
    11:00 +29°C° 0 mm 3 mps 692 mmHg 47%
    12:00 +29°C° 0 mm 4 mps 691 mmHg 46%
    13:00 +30°C° 0.1 mm 3 mps 691 mmHg 45%
    14:00 +30°C° 0.1 mm 3 mps 691 mmHg 45%
    15:00 +30°C° 0.1 mm 3 mps 691 mmHg 45%
    16:00 +30°C° 0.3 mm 2 mps 690 mmHg 48%
    17:00 +29°C° 0.3 mm 2 mps 690 mmHg 51%
    18:00 +28°C° 0.3 mm 2 mps 690 mmHg 55%
    19:00 +27°C° 0 mm 2 mps 690 mmHg 58%
    20:00 +25°C° 0 mm 2 mps 690 mmHg 61%
    21:00 +23°C° 0 mm 1 mps 690 mmHg 65%
    22:00 +23°C° 0.1 mm 2 mps 689 mmHg 66%
    23:00 +23°C° 0.1 mm 2 mps 689 mmHg 67%

    Day after tomorrow, 28 June, Friday

    Time Temperature Precipitation Wind Pressure Humidity
    00:00 +23°C° 0.1 mm 2 mps 689 mmHg 68%
    01:00 +21°C° 0 mm 2 mps 689 mmHg 69%
    02:00 +22°C° 0 mm 1 mps 688 mmHg 70%
    03:00 +21°C° 0 mm 1 mps 688 mmHg 71%
    04:00 +22°C° 0 mm 1 mps 688 mmHg 69%
    05:00 +22°C° 0 mm 1 mps 688 mmHg 68%
    06:00 +23°C° 0 mm 1 mps 688 mmHg 66%
    07:00 +24°C° 0 mm 1 mps 688 mmHg 61%
    08:00 +26°C° 0 mm 1 mps 688 mmHg 55%
    09:00 +27°C° 0 mm 2 mps 688 mmHg 50%
    10:00 +28°C° 0 mm 2 mps 687 mmHg 48%
    11:00 +29°C° 0 mm 2 mps 687 mmHg 47%
    12:00 +30°C° 0 mm 2 mps 687 mmHg 46%
    13:00 +30°C° 0 mm 3 mps 686 mmHg 46%
    14:00 +30°C° 0 mm 3 mps 686 mmHg 46%
    15:00 +31°C° 0 mm 3 mps 685 mmHg 46%
    16:00 +30°C° 0.2 mm 2 mps 685 mmHg 51%
    17:00 +28°C° 0.2 mm 2 mps 685 mmHg 57%
    18:00 +27°C° 0.2 mm 1 mps 684 mmHg 63%
    19:00 +26°C° 0.1 mm 1 mps 685 mmHg 65%
    20:00 +25°C° 0.1 mm 1 mps 685 mmHg 67%
    21:00 +24°C° 0.1 mm 1 mps 685 mmHg 70%
    22:00 +24°C° 0.2 mm 1 mps 685 mmHg 71%
    23:00 +24°C° 0.2 mm 1 mps 685 mmHg 73%

    29 June, Saturday

    Time Temperature Precipitation Wind Pressure Humidity
    00:00 +23°C° 0.2 mm 2 mps 685 mmHg 75%
    01:00 +23°C° 0.1 mm 2 mps 685 mmHg 75%
    02:00 +21°C° 0.1 mm 2 mps 684 mmHg 76%
    03:00 +21°C° 0.1 mm 2 mps 684 mmHg 76%
    04:00 +23°C° 0 mm 1 mps 684 mmHg 74%
    05:00 +23°C° 0 mm 1 mps 684 mmHg 72%
    06:00 +24°C° 0 mm 1 mps 685 mmHg 70%
    07:00 +25°C° 0 mm 1 mps 685 mmHg 65%
    08:00 +27°C° 0 mm 2 mps 685 mmHg 60%
    09:00 +28°C° 0 mm 2 mps 685 mmHg 55%
    10:00 +29°C° 0 mm 2 mps 685 mmHg 54%
    11:00 +29°C° 0 mm 2 mps 685 mmHg 53%
    12:00 +30°C° 0 mm 3 mps 684 mmHg 51%
    13:00 +30°C° 0.2 mm 3 mps 684 mmHg 50%
    14:00 +31°C° 0.2 mm 2 mps 684 mmHg 49%
    15:00 +31°C° 0.2 mm 2 mps 683 mmHg 48%
    16:00 +30°C° 0.4 mm 2 mps 683 mmHg 51%
    17:00 +30°C° 0.4 mm 2 mps 683 mmHg 54%
    18:00 +29°C° 0.4 mm 2 mps 683 mmHg 57%
    19:00 +27°C° 0.6 mm 2 mps 683 mmHg 63%
    20:00 +26°C° 0.6 mm 2 mps 684 mmHg 69%
    21:00 +24°C° 0.6 mm 2 mps 684 mmHg 75%
    22:00 +23°C° 1.7 mm 1 mps 684 mmHg 81%
    23:00 +22°C° 1.7 mm 1 mps 685 mmHg 86%

    30 June, Sunday

    Time Temperature Precipitation Wind Pressure Humidity
    00:00 +22°C° 1.7 mm 1 mps 685 mmHg 91%
    01:00 +21°C° 0.6 mm 1 mps 685 mmHg 92%
    02:00 +21°C° 0.6 mm 1 mps 685 mmHg 92%
    03:00 +21°C° 0.6 mm 1 mps 685 mmHg 92%
    04:00 +21°C° 0.2 mm 1 mps 686 mmHg 90%
    05:00 +21°C° 0.2 mm 1 mps 686 mmHg 89%
    06:00 +22°C° 0.2 mm 1 mps 686 mmHg 87%
    07:00 +21°C° 0.1 mm 2 mps 686 mmHg 83%
    08:00 +23°C° 0.1 mm 2 mps 687 mmHg 79%
    09:00 +23°C° 0.1 mm 2 mps 687 mmHg 75%
    10:00 +24°C° 0.2 mm 2 mps 687 mmHg 71%
    11:00 +25°C° 0.2 mm 2 mps 687 mmHg 67%
    12:00 +26°C° 0.2 mm 2 mps 687 mmHg 63%
    13:00 +26°C° 0.1 mm 3 mps 686 mmHg 60%
    14:00 +26°C° 0.1 mm 3 mps 686 mmHg 57%
    15:00 +27°C° 0.1 mm 4 mps 686 mmHg 54%
    16:00 +26°C° 0.1 mm 4 mps 686 mmHg 61%
    17:00 +23°C° 0.1 mm 4 mps 685 mmHg 67%
    18:00 +22°C° 0.1 mm 4 mps 685 mmHg 74%
    19:00 +21°C° 0.2 mm 3 mps 686 mmHg 79%
    20:00 +20°C° 0.2 mm 2 mps 686 mmHg 85%
    21:00 +19°C° 0.2 mm 2 mps 686 mmHg 91%
    22:00 +19°C° 0.3 mm 2 mps 686 mmHg 92%
    23:00 +18°C° 0.3 mm 2 mps 687 mmHg 93%

    1 July, Monday

    Time Temperature Precipitation Wind Pressure Humidity
    00:00 +18°C° 0.3 mm 2 mps 687 mmHg 94%
    01:00 +18°C° 0.6 mm 2 mps 687 mmHg 94%
    02:00 +18°C° 0.6 mm 1 mps 687 mmHg 93%
    03:00 +16°C° 0.6 mm 1 mps 687 mmHg 93%
    04:00 +16°C° 0.9 mm 1 mps 687 mmHg 93%
    05:00 +16°C° 0.9 mm 2 mps 687 mmHg 93%
    06:00 +15°C° 0.9 mm 2 mps 687 mmHg 93%
    07:00 +16°C° 0.2 mm 2 mps 687 mmHg 89%
    08:00 +16°C° 0.2 mm 1 mps 687 mmHg 85%
    09:00 +16°C° 0.2 mm 1 mps 688 mmHg 82%
    10:00 +18°C° 0 mm 1 mps 688 mmHg 78%
    11:00 +17°C° 0 mm 2 mps 688 mmHg 75%
    12:00 +18°C° 0 mm 2 mps 688 mmHg 71%
    13:00 +18°C° 0 mm 2 mps 688 mmHg 71%
    14:00 +18°C° 0 mm 2 mps 688 mmHg 71%
    15:00 +19°C° 0 mm 2 mps 687 mmHg 70%
    16:00 +18°C° 0.7 mm 2 mps 688 mmHg 74%
    17:00 +18°C° 0.7 mm 1 mps 688 mmHg 77%
    18:00 +18°C° 0.7 mm 1 mps 688 mmHg 80%
    19:00 +16°C° 1.9 mm 1 mps 689 mmHg 83%
    20:00 +16°C° 1.9 mm 2 mps 689 mmHg 86%
    21:00 +15°C° 1.9 mm 2 mps 690 mmHg 89%
    22:00 +15°C° 0.5 mm 2 mps 690 mmHg 89%
    23:00 +15°C° 0.5 mm 2 mps 690 mmHg 88%
    Show more